Time,TemperatureF,DewpointF,PressureIn,WindDirection,WindDirectionDegrees,WindSpeedMPH,WindSpeedGustMPH,Humidity,HourlyPrecipIn,Conditions,Clouds,dailyrainin,SoftwareType,DateUTC
2013-03-04 00:00:00,22.0,11.7,30.03,South,180,2.5,4.0,64,0.00,,,0.00,VWS V14.01,2013-03-04 05:00:00,
2013-03-04 00:05:00,21.9,12.2,30.03,SSE,158,3.8,3.8,66,0.00,,,0.00,VWS V14.01,2013-03-04 05:05:00,
2013-03-04 00:10:00,21.7,11.7,30.03,South,180,1.3,5.4,65,0.00,,,0.00,VWS V14.01,2013-03-04 05:10:00,
2013-03-04 00:15:00,22.0,12.1,30.03,SSE,158,1.1,5.4,65,0.00,,,0.00,VWS V14.01,2013-03-04 05:15:00,
2013-03-04 00:20:00,22.0,12.4,30.03,South,180,2.9,4.9,66,0.00,,,0.00,VWS V14.01,2013-03-04 05:20:00,
2013-03-04 00:25:00,21.9,12.2,30.03,SSE,158,3.1,5.4,66,0.00,,,0.00,VWS V14.01,2013-03-04 05:25:00,
2013-03-04 00:30:00,21.7,12.4,30.03,SSE,158,3.8,5.4,67,0.00,,,0.00,VWS V14.01,2013-03-04 05:30:00,
2013-03-04 00:35:00,21.7,12.1,30.03,SSE,158,3.8,4.3,66,0.00,,,0.00,VWS V14.01,2013-03-04 05:35:00,
2013-03-04 00:40:00,21.1,11.9,30.00,SSE,158,2.7,4.3,67,0.00,,,0.00,VWS V14.01,2013-03-04 05:40:00,
2013-03-04 00:45:00,21.9,12.2,30.00,SSE,158,2.9,4.3,66,0.00,,,0.00,VWS V14.01,2013-03-04 05:45:00,
2013-03-04 00:50:00,21.5,12.2,30.00,SSW,202,1.6,3.8,67,0.00,,,0.00,VWS V14.01,2013-03-04 05:50:00,
2013-03-04 00:55:00,21.9,12.2,30.00,SE,135,2.9,3.8,66,0.00,,,0.00,VWS V14.01,2013-03-04 05:55:00,
2013-03-04 01:00:00,21.5,12.2,30.03,South,180,2.9,3.8,67,0.00,,,0.00,VWS V14.01,2013-03-04 06:00:00,
2013-03-04 01:05:00,21.5,12.2,30.03,SE,135,2.0,3.8,67,0.00,,,0.00,VWS V14.01,2013-03-04 06:05:00,
2013-03-04 01:10:00,21.5,12.2,30.03,SSE,158,2.5,3.8,67,0.00,,,0.00,VWS V14.01,2013-03-04 06:10:00,
2013-03-04 01:15:00,21.7,12.4,30.03,South,180,0.0,4.3,67,0.00,,,0.00,VWS V14.01,2013-03-04 06:15:00,
2013-03-04 01:20:00,21.9,12.2,30.03,SSW,202,3.1,4.0,66,0.00,,,0.00,VWS V14.01,2013-03-04 06:20:00,
2013-03-04 01:25:00,21.7,12.1,30.03,SSE,158,3.4,4.0,66,0.00,,,0.00,VWS V14.01,2013-03-04 06:25:00,
2013-03-04 01:30:00,21.9,12.2,30.03,SSW,202,2.7,4.3,66,0.00,,,0.00,VWS V14.01,2013-03-04 06:30:00,
2013-03-04 01:35:00,21.5,11.9,30.03,SSE,158,4.7,4.7,66,0.00,,,0.00,VWS V14.01,2013-03-04 06:35:00,
2013-03-04 01:40:00,21.7,12.4,30.03,SSE,158,2.5,5.6,67,0.00,,,0.00,VWS V14.01,2013-03-04 06:40:00,
2013-03-04 01:45:00,21.5,12.2,30.03,South,180,2.9,5.6,67,0.00,,,0.00,VWS V14.01,2013-03-04 06:45:00,
2013-03-04 01:50:00,21.5,12.2,30.03,South,180,2.2,4.9,67,0.00,,,0.00,VWS V14.01,2013-03-04 06:50:00,
2013-03-04 01:55:00,21.5,11.9,30.03,SSE,158,3.4,4.9,66,0.00,,,0.00,VWS V14.01,2013-03-04 06:55:00,
2013-03-04 02:00:00,21.1,11.9,30.03,SSE,158,4.0,4.9,67,0.00,,,0.00,VWS V14.01,2013-03-04 07:00:00,
2013-03-04 02:05:00,21.9,11.9,30.03,SW,225,2.0,4.3,65,0.00,,,0.00,VWS V14.01,2013-03-04 07:05:00,
2013-03-04 02:10:00,21.9,11.9,30.00,South,180,2.2,4.3,65,0.00,,,0.00,VWS V14.01,2013-03-04 07:10:00,
2013-03-04 02:15:00,21.9,11.9,30.00,SE,135,3.4,4.3,65,0.00,,,0.00,VWS V14.01,2013-03-04 07:15:00,
2013-03-04 02:20:00,21.3,11.4,30.00,South,180,0.0,3.8,65,0.00,,,0.00,VWS V14.01,2013-03-04 07:20:00,
2013-03-04 02:25:00,21.3,11.4,30.00,SE,135,2.0,3.8,65,0.00,,,0.00,VWS V14.01,2013-03-04 07:25:00,
2013-03-04 02:30:00,21.1,11.9,30.03,SSE,158,3.1,6.3,67,0.00,,,0.00,VWS V14.01,2013-03-04 07:30:00,
2013-03-04 02:35:00,21.7,12.1,30.03,SSW,202,2.7,5.8,66,0.00,,,0.00,VWS V14.01,2013-03-04 07:35:00,
2013-03-04 02:40:00,21.5,12.2,30.03,SSE,158,2.9,5.8,67,0.00,,,0.00,VWS V14.01,2013-03-04 07:40:00,
2013-03-04 02:45:00,21.3,12.1,30.03,SE,135,2.7,5.8,67,0.00,,,0.00,VWS V14.01,2013-03-04 07:45:00,
2013-03-04 02:50:00,20.6,11.7,30.03,SSE,158,2.7,2.9,68,0.00,,,0.00,VWS V14.01,2013-03-04 07:50:00,
2013-03-04 02:55:00,21.0,12.1,30.03,South,180,2.9,4.9,68,0.00,,,0.00,VWS V14.01,2013-03-04 07:55:00,
2013-03-04 03:00:00,20.8,12.2,30.03,South,180,2.9,4.9,69,0.00,,,0.00,VWS V14.01,2013-03-04 08:00:00,
2013-03-04 03:05:00,21.1,12.2,30.03,SSW,202,2.0,4.5,68,0.00,,,0.00,VWS V14.01,2013-03-04 08:05:00,
2013-03-04 03:10:00,21.1,12.2,30.03,SW,225,0.0,4.5,68,0.00,,,0.00,VWS V14.01,2013-03-04 08:10:00,
2013-03-04 03:15:00,21.1,12.2,30.03,South,180,1.3,4.5,68,0.00,,,0.00,VWS V14.01,2013-03-04 08:15:00,
2013-03-04 03:20:00,21.1,12.2,30.03,South,180,1.6,3.1,68,0.00,,,0.00,VWS V14.01,2013-03-04 08:20:00,
2013-03-04 03:25:00,21.1,12.2,30.03,SSW,202,0.9,3.1,68,0.00,,,0.00,VWS V14.01,2013-03-04 08:25:00,
2013-03-04 03:30:00,21.1,12.2,30.03,SW,225,1.3,3.1,68,0.00,,,0.00,VWS V14.01,2013-03-04 08:30:00,
2013-03-04 03:35:00,21.5,12.2,30.03,SE,135,1.1,3.1,67,0.00,,,0.00,VWS V14.01,2013-03-04 08:35:00,
2013-03-04 03:40:00,21.1,11.9,30.06,South,180,0.0,3.8,67,0.00,,,0.00,VWS V14.01,2013-03-04 08:40:00,
2013-03-04 03:45:00,21.0,11.7,30.06,SSE,158,4.0,4.0,67,0.00,,,0.00,VWS V14.01,2013-03-04 08:45:00,
2013-03-04 03:50:00,20.6,11.7,30.06,South,180,0.9,3.4,68,0.00,,,0.00,VWS V14.01,2013-03-04 08:50:00,
2013-03-04 03:55:00,20.4,12.5,30.06,WSW,248,1.1,3.4,71,0.00,,,0.00,VWS V14.01,2013-03-04 08:55:00,
2013-03-04 04:00:00,20.6,13.0,30.06,SW,225,0.0,3.4,72,0.00,,,0.00,VWS V14.01,2013-03-04 09:00:00,
2013-03-04 04:05:00,21.0,12.7,30.06,SE,135,2.2,2.9,70,0.00,,,0.00,VWS V14.01,2013-03-04 09:05:00,
2013-03-04 04:10:00,21.3,12.4,30.06,SSE,158,2.9,3.8,68,0.00,,,0.00,VWS V14.01,2013-03-04 09:10:00,
2013-03-04 04:15:00,21.1,12.6,30.06,NNE,22,0.9,3.8,69,0.00,,,0.00,VWS V14.01,2013-03-04 09:15:00,
2013-03-04 04:20:00,20.8,12.2,30.06,SSW,202,1.1,1.1,69,0.00,,,0.00,VWS V14.01,2013-03-04 09:20:00,
2013-03-04 04:25:00,20.8,12.6,30.06,SW,225,0.0,2.5,70,0.00,,,0.00,VWS V14.01,2013-03-04 09:25:00,
2013-03-04 04:30:00,20.2,13.0,30.06,SE,135,0.0,2.5,73,0.00,,,0.00,VWS V14.01,2013-03-04 09:30:00,
2013-03-04 04:35:00,19.9,12.9,30.06,SW,225,0.0,1.3,74,0.00,,,0.00,VWS V14.01,2013-03-04 09:35:00,
2013-03-04 04:40:00,19.9,13.2,30.06,SSE,158,0.0,2.2,75,0.00,,,0.00,VWS V14.01,2013-03-04 09:40:00,
2013-03-04 04:45:00,19.5,13.2,30.06,SW,225,1.3,2.2,76,0.00,,,0.00,VWS V14.01,2013-03-04 09:45:00,
2013-03-04 04:50:00,19.5,13.2,30.06,NNE,22,1.1,2.5,76,0.00,,,0.00,VWS V14.01,2013-03-04 09:50:00,
2013-03-04 04:55:00,19.3,13.9,30.06,South,180,0.0,2.5,79,0.00,,,0.00,VWS V14.01,2013-03-04 09:55:00,
2013-03-04 05:00:00,19.1,13.7,30.06,West,270,0.0,2.5,79,0.00,,,0.00,VWS V14.01,2013-03-04 10:00:00,
2013-03-04 05:05:00,19.1,13.7,30.06,West,270,2.0,2.0,79,0.00,,,0.00,VWS V14.01,2013-03-04 10:05:00,
2013-03-04 05:10:00,19.3,14.5,30.09,West,270,0.0,2.0,81,0.00,,,0.00,VWS V14.01,2013-03-04 10:10:00,
2013-03-04 05:15:00,19.0,13.8,30.09,SE,135,0.0,2.7,80,0.00,,,0.00,VWS V14.01,2013-03-04 10:15:00,
2013-03-04 05:20:00,18.8,13.4,30.09,SSE,158,0.0,2.9,79,0.00,,,0.00,VWS V14.01,2013-03-04 10:20:00,
2013-03-04 05:25:00,18.8,13.4,30.09,South,180,2.5,2.9,79,0.00,,,0.00,VWS V14.01,2013-03-04 10:25:00,
2013-03-04 05:30:00,19.0,13.6,30.09,WNW,292,0.0,2.9,79,0.00,,,0.00,VWS V14.01,2013-03-04 10:30:00,
2013-03-04 05:35:00,19.1,14.0,30.09,SW,225,0.0,2.9,80,0.00,,,0.00,VWS V14.01,2013-03-04 10:35:00,
2013-03-04 05:40:00,18.8,13.7,30.09,SSW,202,0.0,2.9,80,0.00,,,0.00,VWS V14.01,2013-03-04 10:40:00,
2013-03-04 05:45:00,18.8,14.5,30.09,WNW,292,1.6,2.9,83,0.00,,,0.00,VWS V14.01,2013-03-04 10:45:00,
2013-03-04 05:50:00,18.8,14.5,30.09,NW,315,0.0,2.9,83,0.00,,,0.00,VWS V14.01,2013-03-04 10:50:00,
2013-03-04 05:55:00,18.8,15.0,30.09,NNW,338,0.0,2.9,85,0.00,,,0.00,VWS V14.01,2013-03-04 10:55:00,
2013-03-04 06:00:00,18.6,14.6,30.09,NNW,338,0.0,2.9,84,0.00,,,0.00,VWS V14.01,2013-03-04 11:00:00,
2013-03-04 06:05:00,18.4,14.7,30.09,SSE,158,0.0,0.0,85,0.00,,,0.00,VWS V14.01,2013-03-04 11:05:00,
2013-03-04 06:10:00,18.2,14.5,30.09,SSE,158,3.1,3.1,85,0.00,,,0.00,VWS V14.01,2013-03-04 11:10:00,
2013-03-04 06:15:00,17.9,13.9,30.09,SSE,158,0.0,3.1,84,0.00,,,0.00,VWS V14.01,2013-03-04 11:15:00,
2013-03-04 06:20:00,18.8,15.3,30.09,NNW,338,0.0,2.0,86,0.00,,,0.00,VWS V14.01,2013-03-04 11:20:00,
2013-03-04 06:25:00,18.4,14.9,30.09,SE,135,0.0,2.2,86,0.00,,,0.00,VWS V14.01,2013-03-04 11:25:00,
2013-03-04 06:30:00,17.9,14.2,30.09,WNW,292,0.0,2.7,85,0.00,,,0.00,VWS V14.01,2013-03-04 11:30:00,
2013-03-04 06:35:00,17.9,14.4,30.09,SSE,158,2.0,2.0,86,0.00,,,0.00,VWS V14.01,2013-03-04 11:35:00,
2013-03-04 06:40:00,17.9,14.9,30.09,NW,315,2.2,2.9,88,0.00,,,0.00,VWS V14.01,2013-03-04 11:40:00,
2013-03-04 06:45:00,18.1,15.6,30.09,SSE,158,2.5,2.9,90,0.00,,,0.00,VWS V14.01,2013-03-04 11:45:00,
2013-03-04 06:50:00,18.1,15.6,30.09,SSW,202,0.0,2.0,90,0.00,,,0.00,VWS V14.01,2013-03-04 11:50:00,
2013-03-04 06:55:00,18.1,15.6,30.09,NNW,338,2.0,2.0,90,0.00,,,0.00,VWS V14.01,2013-03-04 11:55:00,
2013-03-04 07:00:00,18.2,15.8,30.09,NW,315,1.1,2.0,90,0.00,,,0.00,VWS V14.01,2013-03-04 12:00:00,
2013-03-04 07:05:00,18.2,15.8,30.09,SSE,158,0.0,1.6,90,0.00,,,0.00,VWS V14.01,2013-03-04 12:05:00,
2013-03-04 07:10:00,18.2,15.8,30.09,North,0,0.0,1.6,90,0.00,,,0.00,VWS V14.01,2013-03-04 12:10:00,
2013-03-04 07:15:00,17.9,15.2,30.09,NE,45,0.0,1.6,89,0.00,,,0.00,VWS V14.01,2013-03-04 12:15:00,
2013-03-04 07:20:00,17.9,15.2,30.09,NE,45,0.0,0.0,89,0.00,,,0.00,VWS V14.01,2013-03-04 12:20:00,
2013-03-04 07:25:00,17.5,14.6,30.06,SSE,158,1.6,2.7,88,0.00,,,0.00,VWS V14.01,2013-03-04 12:25:00,
2013-03-04 07:30:00,17.5,14.9,30.06,South,180,1.1,2.7,89,0.00,,,0.00,VWS V14.01,2013-03-04 12:30:00,
2013-03-04 07:35:00,17.7,15.3,30.06,South,180,0.0,0.9,90,0.00,,,0.00,VWS V14.01,2013-03-04 12:35:00,
2013-03-04 07:40:00,17.7,15.3,30.06,South,180,0.0,0.9,90,0.00,,,0.00,VWS V14.01,2013-03-04 12:40:00,
2013-03-04 07:45:00,17.9,15.5,30.06,South,180,2.2,2.9,90,0.00,,,0.00,VWS V14.01,2013-03-04 12:45:00,
2013-03-04 07:50:00,18.2,15.8,30.06,SSE,158,2.7,3.1,90,0.00,,,0.00,VWS V14.01,2013-03-04 12:50:00,
2013-03-04 07:55:00,19.3,17.1,30.09,WNW,292,1.6,3.1,91,0.00,,,0.00,VWS V14.01,2013-03-04 12:55:00,
2013-03-04 08:00:00,20.2,18.3,30.09,NNW,338,0.0,3.1,92,0.00,,,0.00,VWS V14.01,2013-03-04 13:00:00,
2013-03-04 08:05:00,21.1,17.6,30.09,NNW,338,0.9,2.5,86,0.00,,,0.00,VWS V14.01,2013-03-04 13:05:00,
2013-03-04 08:10:00,21.7,17.6,30.09,NNW,338,2.5,2.5,84,0.00,,,0.00,VWS V14.01,2013-03-04 13:10:00,
2013-03-04 08:15:00,22.6,17.4,30.09,NNW,338,0.0,2.5,80,0.00,,,0.00,VWS V14.01,2013-03-04 13:15:00,
2013-03-04 08:20:00,24.4,16.7,30.09,SE,135,0.9,2.7,72,0.00,,,0.00,VWS V14.01,2013-03-04 13:20:00,
2013-03-04 08:25:00,25.3,15.9,30.09,SE,135,2.0,2.7,67,0.00,,,0.00,VWS V14.01,2013-03-04 13:25:00,
2013-03-04 08:30:00,26.5,14.9,30.09,East,90,1.6,2.7,61,0.00,,,0.00,VWS V14.01,2013-03-04 13:30:00,
2013-03-04 08:35:00,27.6,15.2,30.09,SE,135,1.6,1.6,59,0.00,,,0.00,VWS V14.01,2013-03-04 13:35:00,
2013-03-04 08:40:00,28.3,15.5,30.09,South,180,2.9,2.9,58,0.00,,,0.00,VWS V14.01,2013-03-04 13:40:00,
2013-03-04 08:45:00,29.6,15.8,30.09,SE,135,2.2,3.6,56,0.00,,,0.00,VWS V14.01,2013-03-04 13:45:00,
2013-03-04 08:50:00,31.2,14.8,30.09,SE,135,2.5,4.3,50,0.00,,,0.00,VWS V14.01,2013-03-04 13:50:00,
2013-03-04 08:55:00,32.3,13.9,30.09,SE,135,2.9,4.3,46,0.00,,,0.00,VWS V14.01,2013-03-04 13:55:00,
2013-03-04 09:00:00,32.5,14.0,30.09,South,180,2.7,4.3,46,0.00,,,0.00,VWS V14.01,2013-03-04 14:00:00,
2013-03-04 09:05:00,33.7,13.1,30.09,ESE,112,1.6,2.7,42,0.00,,,0.00,VWS V14.01,2013-03-04 14:05:00,
2013-03-04 09:10:00,33.9,12.1,30.09,ESE,112,2.9,3.6,40,0.00,,,0.00,VWS V14.01,2013-03-04 14:10:00,
2013-03-04 09:15:00,34.1,13.4,30.09,ENE,68,2.0,3.6,42,0.00,,,0.00,VWS V14.01,2013-03-04 14:15:00,
2013-03-04 09:20:00,34.1,10.6,30.09,SSE,158,2.0,5.8,37,0.00,,,0.00,VWS V14.01,2013-03-04 14:20:00,
2013-03-04 09:25:00,35.2,14.4,30.09,NNE,22,3.1,5.8,42,0.00,,,0.00,VWS V14.01,2013-03-04 14:25:00,
2013-03-04 09:30:00,35.0,11.4,30.09,NNE,22,3.4,5.8,37,0.00,,,0.00,VWS V14.01,2013-03-04 14:30:00,
2013-03-04 09:35:00,34.6,11.1,30.09,NNE,22,1.3,4.3,37,0.00,,,0.00,VWS V14.01,2013-03-04 14:35:00,
2013-03-04 09:40:00,35.3,11.7,30.09,NW,315,1.3,4.3,37,0.00,,,0.00,VWS V14.01,2013-03-04 14:40:00,
2013-03-04 09:45:00,35.5,9.9,30.09,NNE,22,2.0,5.4,34,0.00,,,0.00,VWS V14.01,2013-03-04 14:45:00,
2013-03-04 09:50:00,35.7,10.1,30.09,NE,45,2.0,4.5,34,0.00,,,0.00,VWS V14.01,2013-03-04 14:50:00,
2013-03-04 09:55:00,35.9,10.3,30.09,NNE,22,2.0,4.5,34,0.00,,,0.00,VWS V14.01,2013-03-04 14:55:00,
2013-03-04 10:00:00,36.6,10.9,30.09,ENE,68,2.5,4.5,34,0.00,,,0.00,VWS V14.01,2013-03-04 15:00:00,
2013-03-04 10:05:00,37.2,11.4,30.09,NNE,22,3.8,4.0,34,0.00,,,0.00,VWS V14.01,2013-03-04 15:05:00,
2013-03-04 10:10:00,37.5,11.7,30.09,NE,45,1.3,4.0,34,0.00,,,0.00,VWS V14.01,2013-03-04 15:10:00,
2013-03-04 10:15:00,38.0,12.2,30.09,WNW,292,2.7,4.0,34,0.00,,,0.00,VWS V14.01,2013-03-04 15:15:00,
2013-03-04 10:20:00,38.4,11.8,30.09,NNW,338,2.0,2.5,33,0.00,,,0.00,VWS V14.01,2013-03-04 15:20:00,
2013-03-04 10:25:00,38.2,12.4,30.06,NNW,338,1.3,4.0,34,0.00,,,0.00,VWS V14.01,2013-03-04 15:25:00,
2013-03-04 10:30:00,39.0,10.9,30.06,East,90,2.7,4.0,31,0.00,,,0.00,VWS V14.01,2013-03-04 15:30:00,
2013-03-04 10:35:00,38.6,10.6,30.06,WSW,248,2.5,4.0,31,0.00,,,0.00,VWS V14.01,2013-03-04 15:35:00,
2013-03-04 10:40:00,39.3,11.2,30.09,NNW,338,2.0,4.0,31,0.00,,,0.00,VWS V14.01,2013-03-04 15:40:00,
2013-03-04 10:45:00,39.1,11.1,30.09,NNE,22,2.7,4.0,31,0.00,,,0.00,VWS V14.01,2013-03-04 15:45:00,
2013-03-04 10:50:00,39.5,11.4,30.09,NNW,338,1.6,2.7,31,0.00,,,0.00,VWS V14.01,2013-03-04 15:50:00,
2013-03-04 10:55:00,39.8,13.1,30.09,NNW,338,1.6,2.7,33,0.00,,,0.00,VWS V14.01,2013-03-04 15:55:00,
2013-03-04 11:00:00,40.9,14.1,30.09,West,270,1.3,2.7,33,0.00,,,0.00,VWS V14.01,2013-03-04 16:00:00,
2013-03-04 11:05:00,40.9,14.1,30.09,ENE,68,1.1,4.3,33,0.00,,,0.00,VWS V14.01,2013-03-04 16:05:00,
2013-03-04 11:10:00,41.3,14.4,30.09,NNW,338,3.6,4.3,33,0.00,,,0.00,VWS V14.01,2013-03-04 16:10:00,
2013-03-04 11:15:00,41.5,14.5,30.09,WNW,292,3.1,5.6,33,0.00,,,0.00,VWS V14.01,2013-03-04 16:15:00,
2013-03-04 11:20:00,42.7,15.6,30.09,WNW,292,3.1,5.6,33,0.00,,,0.00,VWS V14.01,2013-03-04 16:20:00,
2013-03-04 11:25:00,42.9,15.8,30.09,WNW,292,4.0,5.6,33,0.00,,,0.00,VWS V14.01,2013-03-04 16:25:00,
2013-03-04 11:30:00,43.3,16.1,30.09,WNW,292,4.0,5.6,33,0.00,,,0.00,VWS V14.01,2013-03-04 16:30:00,
2013-03-04 11:35:00,43.6,16.4,30.09,NNW,338,2.7,4.0,33,0.00,,,0.00,VWS V14.01,2013-03-04 16:35:00,
2013-03-04 11:40:00,43.6,16.4,30.09,NNE,22,2.7,4.0,33,0.00,,,0.00,VWS V14.01,2013-03-04 16:40:00,
2013-03-04 11:45:00,44.2,16.2,30.09,NNE,22,3.1,4.0,32,0.00,,,0.00,VWS V14.01,2013-03-04 16:45:00,
2013-03-04 11:50:00,45.1,17.0,30.09,NNE,22,2.7,3.1,32,0.00,,,0.00,VWS V14.01,2013-03-04 16:50:00,
2013-03-04 11:55:00,44.7,16.7,30.09,NE,45,3.6,3.6,32,0.00,,,0.00,VWS V14.01,2013-03-04 16:55:00,
2013-03-04 12:00:00,45.2,17.1,30.09,West,270,4.5,4.5,32,0.00,,,0.00,VWS V14.01,2013-03-04 17:00:00,
2013-03-04 12:05:00,46.0,17.8,30.09,NE,45,2.9,4.5,32,0.00,,,0.00,VWS V14.01,2013-03-04 17:05:00,
2013-03-04 12:10:00,46.2,17.9,30.09,South,180,1.3,4.5,32,0.00,,,0.00,VWS V14.01,2013-03-04 17:10:00,
2013-03-04 12:15:00,46.9,18.6,30.09,South,180,1.3,4.5,32,0.00,,,0.00,VWS V14.01,2013-03-04 17:15:00,
2013-03-04 12:20:00,47.2,18.9,30.09,WSW,248,0.9,4.5,32,0.00,,,0.00,VWS V14.01,2013-03-04 17:20:00,
2013-03-04 12:25:00,46.9,18.6,30.09,ESE,112,3.4,4.5,32,0.00,,,0.00,VWS V14.01,2013-03-04 17:25:00,
2013-03-04 12:30:00,47.2,18.9,30.09,North,0,3.1,4.9,32,0.00,,,0.00,VWS V14.01,2013-03-04 17:30:00,
2013-03-04 12:35:00,47.4,18.3,30.09,NE,45,3.8,5.6,31,0.00,,,0.00,VWS V14.01,2013-03-04 17:35:00,
2013-03-04 12:40:00,47.4,18.3,30.06,NNE,22,4.0,5.6,31,0.00,,,0.00,VWS V14.01,2013-03-04 17:40:00,
2013-03-04 12:45:00,47.8,18.6,30.06,WNW,292,4.0,5.6,31,0.00,,,0.00,VWS V14.01,2013-03-04 17:45:00,
2013-03-04 12:50:00,47.8,18.6,30.06,WNW,292,4.3,4.7,31,0.00,,,0.00,VWS V14.01,2013-03-04 17:50:00,
2013-03-04 12:55:00,48.3,19.1,30.06,WNW,292,1.3,4.7,31,0.00,,,0.00,VWS V14.01,2013-03-04 17:55:00,
2013-03-04 13:00:00,49.0,19.7,30.06,NNE,22,2.5,4.7,31,0.00,,,0.00,VWS V14.01,2013-03-04 18:00:00,
2013-03-04 13:05:00,48.8,19.6,30.06,NNE,22,5.4,8.1,31,0.00,,,0.00,VWS V14.01,2013-03-04 18:05:00,
2013-03-04 13:10:00,49.0,19.7,30.06,NE,45,2.5,8.1,31,0.00,,,0.00,VWS V14.01,2013-03-04 18:10:00,
2013-03-04 13:15:00,49.0,21.9,30.06,East,90,0.0,8.1,34,0.00,,,0.00,VWS V14.01,2013-03-04 18:15:00,
2013-03-04 13:20:00,48.3,21.3,30.06,West,270,2.5,3.4,34,0.00,,,0.00,VWS V14.01,2013-03-04 18:20:00,
2013-03-04 13:25:00,48.8,21.7,30.06,NE,45,2.9,3.6,34,0.00,,,0.00,VWS V14.01,2013-03-04 18:25:00,
2013-03-04 13:29:00,48.8,21.7,30.06,West,270,3.1,4.0,34,0.00,,,0.00,VWS V14.01,2013-03-04 18:29:00,
2013-03-04 13:30:00,48.5,21.4,30.06,West,270,2.7,4.0,34,0.00,,,0.00,VWS V14.01,2013-03-04 18:30:00,
2013-03-04 13:35:00,49.2,22.1,30.06,ENE,68,1.3,3.6,34,0.00,,,0.00,VWS V14.01,2013-03-04 18:35:00,
2013-03-04 13:40:00,49.6,22.4,30.03,ESE,112,4.3,4.3,34,0.00,,,0.00,VWS V14.01,2013-03-04 18:40:00,
2013-03-04 13:45:00,50.1,22.9,30.03,East,90,1.6,4.3,34,0.00,,,0.00,VWS V14.01,2013-03-04 18:45:00,
2013-03-04 13:50:00,50.3,23.0,30.03,NNW,338,2.0,2.7,34,0.00,,,0.00,VWS V14.01,2013-03-04 18:50:00,
2013-03-04 13:55:00,50.1,22.9,30.03,NNW,338,3.8,5.4,34,0.00,,,0.00,VWS V14.01,2013-03-04 18:55:00,
2013-03-04 14:00:00,50.1,22.9,30.03,NNW,338,1.3,5.4,34,0.00,,,0.00,VWS V14.01,2013-03-04 19:00:00,
2013-03-04 14:05:00,50.3,23.0,30.03,ESE,112,3.8,3.8,34,0.00,,,0.00,VWS V14.01,2013-03-04 19:05:00,
2013-03-04 14:10:00,50.8,23.5,30.03,SSE,158,2.5,3.8,34,0.00,,,0.00,VWS V14.01,2013-03-04 19:10:00,
2013-03-04 14:15:00,51.5,23.4,30.03,NW,315,2.7,3.8,33,0.00,,,0.00,VWS V14.01,2013-03-04 19:15:00,
2013-03-04 14:20:00,51.0,22.9,30.03,WNW,292,3.1,6.0,33,0.00,,,0.00,VWS V14.01,2013-03-04 19:20:00,
2013-03-04 14:25:00,51.7,23.6,30.03,WNW,292,1.1,6.0,33,0.00,,,0.00,VWS V14.01,2013-03-04 19:25:00,
2013-03-04 14:30:00,51.5,23.4,30.03,NW,315,4.9,6.0,33,0.00,,,0.00,VWS V14.01,2013-03-04 19:30:00,
2013-03-04 14:35:00,51.7,23.6,30.03,WNW,292,2.9,4.3,33,0.00,,,0.00,VWS V14.01,2013-03-04 19:35:00,
2013-03-04 14:40:00,51.7,23.6,30.03,NNW,338,2.9,4.3,33,0.00,,,0.00,VWS V14.01,2013-03-04 19:40:00,
2013-03-04 14:45:00,51.2,23.1,30.03,NNW,338,3.1,4.9,33,0.00,,,0.00,VWS V14.01,2013-03-04 19:45:00,
2013-03-04 14:50:00,51.5,23.4,30.03,NE,45,1.6,2.5,33,0.00,,,0.00,VWS V14.01,2013-03-04 19:50:00,
2013-03-04 14:55:00,52.1,23.9,30.03,SSE,158,4.0,4.0,33,0.00,,,0.00,VWS V14.01,2013-03-04 19:55:00,
2013-03-04 15:00:00,51.4,23.3,30.03,South,180,2.7,4.0,33,0.00,,,0.00,VWS V14.01,2013-03-04 20:00:00,
2013-03-04 15:05:00,51.7,25.7,30.03,ESE,112,0.0,2.7,36,0.00,,,0.00,VWS V14.01,2013-03-04 20:05:00,
2013-03-04 15:10:00,51.7,23.6,30.03,SSE,158,3.8,5.4,33,0.00,,,0.00,VWS V14.01,2013-03-04 20:10:00,
2013-03-04 15:15:00,51.9,23.7,30.03,SE,135,2.0,5.4,33,0.00,,,0.00,VWS V14.01,2013-03-04 20:15:00,
2013-03-04 15:20:00,52.1,23.9,30.03,WNW,292,2.2,3.6,33,0.00,,,0.00,VWS V14.01,2013-03-04 20:20:00,
2013-03-04 15:25:00,52.1,26.0,30.03,NW,315,3.6,3.6,36,0.00,,,0.00,VWS V14.01,2013-03-04 20:25:00,
2013-03-04 15:30:00,52.5,24.2,30.03,West,270,0.0,3.6,33,0.00,,,0.00,VWS V14.01,2013-03-04 20:30:00,
2013-03-04 15:35:00,52.8,24.5,30.03,WNW,292,1.6,3.1,33,0.00,,,0.00,VWS V14.01,2013-03-04 20:35:00,
2013-03-04 15:40:00,52.8,24.5,30.00,NNE,22,3.1,3.8,33,0.00,,,0.00,VWS V14.01,2013-03-04 20:40:00,
2013-03-04 15:45:00,52.8,24.5,30.00,NNW,338,2.5,5.8,33,0.00,,,0.00,VWS V14.01,2013-03-04 20:45:00,
2013-03-04 15:50:00,52.8,25.9,30.00,NNW,338,1.6,3.4,35,0.00,,,0.00,VWS V14.01,2013-03-04 20:50:00,
2013-03-04 15:55:00,52.3,26.1,30.03,NNW,338,3.8,4.0,36,0.00,,,0.00,VWS V14.01,2013-03-04 20:55:00,
2013-03-04 16:00:00,52.5,26.3,30.03,NNE,22,1.1,4.0,36,0.00,,,0.00,VWS V14.01,2013-03-04 21:00:00,
2013-03-04 16:05:00,52.6,26.5,30.03,West,270,2.5,3.8,36,0.00,,,0.00,VWS V14.01,2013-03-04 21:05:00,
2013-03-04 16:10:00,52.5,24.2,30.03,WNW,292,3.8,3.8,33,0.00,,,0.00,VWS V14.01,2013-03-04 21:10:00,
2013-03-04 16:15:00,52.5,24.2,30.03,NNW,338,0.0,3.8,33,0.00,,,0.00,VWS V14.01,2013-03-04 21:15:00,
2013-03-04 16:20:00,52.5,24.2,30.03,WSW,248,2.5,2.5,33,0.00,,,0.00,VWS V14.01,2013-03-04 21:20:00,
2013-03-04 16:25:00,52.5,24.2,30.03,WNW,292,2.7,3.4,33,0.00,,,0.00,VWS V14.01,2013-03-04 21:25:00,
2013-03-04 16:30:00,52.6,24.4,30.03,West,270,1.1,3.4,33,0.00,,,0.00,VWS V14.01,2013-03-04 21:30:00,
2013-03-04 16:35:00,52.8,24.5,30.03,NE,45,2.7,3.1,33,0.00,,,0.00,VWS V14.01,2013-03-04 21:35:00,
2013-03-04 16:40:00,52.8,24.5,30.03,East,90,2.5,3.1,33,0.00,,,0.00,VWS V14.01,2013-03-04 21:40:00,
2013-03-04 16:45:00,53.2,24.8,30.03,NE,45,0.9,3.1,33,0.00,,,0.00,VWS V14.01,2013-03-04 21:45:00,
2013-03-04 16:50:00,53.0,24.7,30.03,ESE,112,1.1,2.2,33,0.00,,,0.00,VWS V14.01,2013-03-04 21:50:00,
2013-03-04 16:55:00,52.8,24.5,30.03,SE,135,0.0,2.2,33,0.00,,,0.00,VWS V14.01,2013-03-04 21:55:00,
2013-03-04 17:00:00,52.8,24.5,30.03,East,90,1.3,2.2,33,0.00,,,0.00,VWS V14.01,2013-03-04 22:00:00,
2013-03-04 17:05:00,52.8,24.5,30.03,NNW,338,0.0,2.0,33,0.00,,,0.00,VWS V14.01,2013-03-04 22:05:00,
2013-03-04 17:10:00,53.0,24.7,30.03,WSW,248,0.0,2.0,33,0.00,,,0.00,VWS V14.01,2013-03-04 22:10:00,
2013-03-04 17:15:00,53.0,24.7,30.03,NW,315,0.9,2.0,33,0.00,,,0.00,VWS V14.01,2013-03-04 22:15:00,
2013-03-04 17:20:00,53.0,24.7,30.03,SSW,202,0.0,2.0,33,0.00,,,0.00,VWS V14.01,2013-03-04 22:20:00,
2013-03-04 17:25:00,53.0,24.7,30.03,NW,315,1.6,2.2,33,0.00,,,0.00,VWS V14.01,2013-03-04 22:25:00,
2013-03-04 17:30:00,52.8,24.5,30.03,WNW,292,0.0,2.2,33,0.00,,,0.00,VWS V14.01,2013-03-04 22:30:00,
2013-03-04 17:35:00,52.8,24.5,30.03,NW,315,0.0,2.0,33,0.00,,,0.00,VWS V14.01,2013-03-04 22:35:00,
2013-03-04 17:40:00,52.6,24.4,30.03,NW,315,0.0,2.0,33,0.00,,,0.00,VWS V14.01,2013-03-04 22:40:00,
2013-03-04 17:45:00,52.3,26.1,30.03,NW,315,0.0,2.0,36,0.00,,,0.00,VWS V14.01,2013-03-04 22:45:00,
2013-03-04 17:50:00,52.1,26.0,30.03,NW,315,0.0,2.0,36,0.00,,,0.00,VWS V14.01,2013-03-04 22:50:00,
2013-03-04 17:55:00,51.0,25.0,30.03,SSE,158,0.0,2.0,36,0.00,,,0.00,VWS V14.01,2013-03-04 22:55:00,
2013-03-04 18:00:00,50.7,24.7,30.03,SSE,158,0.0,2.0,36,0.00,,,0.00,VWS V14.01,2013-03-04 23:00:00,
2013-03-04 18:05:00,49.4,25.5,30.03,SSE,158,0.0,0.0,39,0.00,,,0.00,VWS V14.01,2013-03-04 23:05:00,
2013-03-04 18:10:00,49.2,26.5,30.03,SSE,158,0.0,0.0,41,0.00,,,0.00,VWS V14.01,2013-03-04 23:10:00,
2013-03-04 18:15:00,48.1,26.7,30.03,SSE,158,0.0,0.0,43,0.00,,,0.00,VWS V14.01,2013-03-04 23:15:00,
2013-03-04 18:20:00,47.2,27.5,30.03,SSW,202,1.3,2.7,46,0.00,,,0.00,VWS V14.01,2013-03-04 23:20:00,
2013-03-04 18:25:00,46.9,27.7,30.03,SSW,202,0.0,2.7,47,0.00,,,0.00,VWS V14.01,2013-03-04 23:25:00,
2013-03-04 18:30:00,46.5,27.9,30.03,South,180,2.0,2.7,48,0.00,,,0.00,VWS V14.01,2013-03-04 23:30:00,
2013-03-04 18:35:00,45.8,28.7,30.03,South,180,0.0,2.0,51,0.00,,,0.00,VWS V14.01,2013-03-04 23:35:00,
2013-03-04 18:40:00,45.4,27.9,30.03,South,180,0.0,2.0,50,0.00,,,0.00,VWS V14.01,2013-03-04 23:40:00,
2013-03-04 18:45:00,44.7,28.6,30.03,SSE,158,2.7,2.9,53,0.00,,,0.00,VWS V14.01,2013-03-04 23:45:00,
2013-03-04 18:50:00,43.5,27.9,30.03,South,180,1.6,2.7,54,0.00,,,0.00,VWS V14.01,2013-03-04 23:50:00,
2013-03-04 18:55:00,43.5,27.9,30.03,South,180,0.0,2.7,54,0.00,,,0.00,VWS V14.01,2013-03-04 23:55:00,
2013-03-04 19:00:00,42.7,27.7,30.03,South,180,2.0,2.7,55,0.00,,,0.00,VWS V14.01,2013-03-05 00:00:00,
2013-03-04 19:05:00,43.1,27.6,30.03,SSW,202,1.6,2.5,54,0.00,,,0.00,VWS V14.01,2013-03-05 00:05:00,
2013-03-04 19:10:00,42.9,27.9,30.03,SE,135,2.5,2.5,55,0.00,,,0.00,VWS V14.01,2013-03-05 00:10:00,
2013-03-04 19:15:00,42.4,27.4,30.03,SSE,158,2.0,2.5,55,0.00,,,0.00,VWS V14.01,2013-03-05 00:15:00,
2013-03-04 19:20:00,42.2,27.2,30.03,SE,135,1.3,3.4,55,0.00,,,0.00,VWS V14.01,2013-03-05 00:20:00,
2013-03-04 19:25:00,42.5,27.1,30.03,South,180,0.0,3.4,54,0.00,,,0.00,VWS V14.01,2013-03-05 00:25:00,
2013-03-04 19:30:00,42.5,27.1,30.03,South,180,2.9,3.4,54,0.00,,,0.00,VWS V14.01,2013-03-05 00:30:00,
2013-03-04 19:35:00,42.5,27.1,30.03,SSE,158,2.2,3.4,54,0.00,,,0.00,VWS V14.01,2013-03-05 00:35:00,
2013-03-04 19:40:00,42.5,27.1,30.03,SW,225,1.6,3.4,54,0.00,,,0.00,VWS V14.01,2013-03-05 00:40:00,
2013-03-04 19:45:00,42.5,27.1,30.03,SSW,202,0.0,3.4,54,0.00,,,0.00,VWS V14.01,2013-03-05 00:45:00,
2013-03-04 19:50:00,42.2,26.8,30.03,South,180,0.0,2.2,54,0.00,,,0.00,VWS V14.01,2013-03-05 00:50:00,
2013-03-04 19:55:00,42.0,26.6,30.03,SSE,158,1.3,2.7,54,0.00,,,0.00,VWS V14.01,2013-03-05 00:55:00,
2013-03-04 20:00:00,42.0,26.6,30.03,SSW,202,0.0,2.7,54,0.00,,,0.00,VWS V14.01,2013-03-05 01:00:00,
2013-03-04 20:05:00,42.0,26.6,30.03,NNW,338,0.0,2.2,54,0.00,,,0.00,VWS V14.01,2013-03-05 01:05:00,
2013-03-04 20:10:00,41.7,26.7,30.00,North,0,2.9,2.9,55,0.00,,,0.00,VWS V14.01,2013-03-05 01:10:00,
2013-03-04 20:15:00,41.3,26.8,30.00,South,180,0.0,2.9,56,0.00,,,0.00,VWS V14.01,2013-03-05 01:15:00,
2013-03-04 20:20:00,40.8,26.3,30.00,ENE,68,2.7,5.6,56,0.00,,,0.00,VWS V14.01,2013-03-05 01:20:00,
2013-03-04 20:25:00,42.9,27.0,30.00,South,180,2.9,5.6,53,0.00,,,0.00,VWS V14.01,2013-03-05 01:25:00,
2013-03-04 20:30:00,41.7,26.7,30.00,NE,45,2.2,5.6,55,0.00,,,0.00,VWS V14.01,2013-03-05 01:30:00,
2013-03-04 20:35:00,42.4,26.5,30.00,ESE,112,2.5,4.9,53,0.00,,,0.00,VWS V14.01,2013-03-05 01:35:00,
2013-03-04 20:40:00,43.1,27.1,30.00,NW,315,2.7,4.9,53,0.00,,,0.00,VWS V14.01,2013-03-05 01:40:00,
2013-03-04 20:45:00,43.5,26.5,30.03,WNW,292,1.6,4.9,51,0.00,,,0.00,VWS V14.01,2013-03-05 01:45:00,
2013-03-04 20:50:00,43.5,27.5,30.03,ESE,112,1.1,2.9,53,0.00,,,0.00,VWS V14.01,2013-03-05 01:50:00,
2013-03-04 20:55:00,44.9,24.9,30.03,NE,45,1.1,5.8,45,0.00,,,0.00,VWS V14.01,2013-03-05 01:55:00,
2013-03-04 21:00:00,44.9,24.9,30.03,WSW,248,2.2,5.8,45,0.00,,,0.00,VWS V14.01,2013-03-05 02:00:00,
2013-03-04 21:05:00,46.5,25.8,30.03,ESE,112,1.1,2.9,44,0.00,,,0.00,VWS V14.01,2013-03-05 02:05:00,
2013-03-04 21:10:00,46.7,26.0,30.03,WNW,292,2.9,2.9,44,0.00,,,0.00,VWS V14.01,2013-03-05 02:10:00,
2013-03-04 21:15:00,46.3,25.1,30.03,NNW,338,0.0,2.9,43,0.00,,,0.00,VWS V14.01,2013-03-05 02:15:00,
2013-03-04 21:20:00,46.7,25.4,30.03,NE,45,1.1,4.3,43,0.00,,,0.00,VWS V14.01,2013-03-05 02:20:00,
2013-03-04 21:25:00,46.3,25.1,30.03,WNW,292,1.6,4.3,43,0.00,,,0.00,VWS V14.01,2013-03-05 02:25:00,
2013-03-04 21:30:00,45.4,24.8,30.03,ESE,112,1.6,4.3,44,0.00,,,0.00,VWS V14.01,2013-03-05 02:30:00,
2013-03-04 21:35:00,45.1,24.5,30.03,South,180,3.4,3.8,44,0.00,,,0.00,VWS V14.01,2013-03-05 02:35:00,
2013-03-04 21:40:00,44.3,23.8,30.03,SSE,158,4.7,4.9,44,0.00,,,0.00,VWS V14.01,2013-03-05 02:40:00,
2013-03-04 21:45:00,45.2,24.6,30.03,NW,315,3.6,6.3,44,0.00,,,0.00,VWS V14.01,2013-03-05 02:45:00,
2013-03-04 21:50:00,46.2,24.9,30.03,NNW,338,2.0,5.6,43,0.00,,,0.00,VWS V14.01,2013-03-05 02:50:00,
2013-03-04 21:55:00,45.6,24.4,30.03,ENE,68,2.9,5.6,43,0.00,,,0.00,VWS V14.01,2013-03-05 02:55:00,
2013-03-04 22:00:00,45.8,24.6,30.03,WSW,248,1.3,5.6,43,0.00,,,0.00,VWS V14.01,2013-03-05 03:00:00,
2013-03-04 22:05:00,45.8,24.6,30.03,ESE,112,4.7,4.7,43,0.00,,,0.00,VWS V14.01,2013-03-05 03:05:00,
2013-03-04 22:10:00,46.3,25.1,30.03,WNW,292,2.0,6.0,43,0.00,,,0.00,VWS V14.01,2013-03-05 03:10:00,
2013-03-04 22:15:00,46.3,25.1,30.03,East,90,3.6,6.0,43,0.00,,,0.00,VWS V14.01,2013-03-05 03:15:00,
2013-03-04 22:20:00,48.0,26.0,30.03,West,270,2.7,12.8,42,0.00,,,0.00,VWS V14.01,2013-03-05 03:20:00,
2013-03-04 22:25:00,46.7,25.4,30.03,ESE,112,1.6,12.8,43,0.00,,,0.00,VWS V14.01,2013-03-05 03:25:00,
2013-03-04 22:30:00,47.0,25.2,30.03,West,270,3.1,12.8,42,0.00,,,0.00,VWS V14.01,2013-03-05 03:30:00,
2013-03-04 22:35:00,47.8,25.8,30.03,SSE,158,2.5,4.0,42,0.00,,,0.00,VWS V14.01,2013-03-05 03:35:00,
2013-03-04 22:40:00,47.2,25.3,30.03,NE,45,0.9,4.0,42,0.00,,,0.00,VWS V14.01,2013-03-05 03:40:00,
2013-03-04 22:45:00,47.0,25.2,30.06,NNE,22,1.6,4.0,42,0.00,,,0.00,VWS V14.01,2013-03-05 03:45:00,
2013-03-04 22:50:00,46.7,24.8,30.06,South,180,0.9,4.0,42,0.00,,,0.00,VWS V14.01,2013-03-05 03:50:00,
2013-03-04 22:55:00,46.9,25.0,30.03,WNW,292,0.0,4.0,42,0.00,,,0.00,VWS V14.01,2013-03-05 03:55:00,
2013-03-04 23:00:00,48.3,26.3,30.03,North,0,2.9,9.0,42,0.00,,,0.00,VWS V14.01,2013-03-05 04:00:00,
2013-03-04 23:05:00,48.5,26.5,30.03,WNW,292,0.0,4.7,42,0.00,,,0.00,VWS V14.01,2013-03-05 04:05:00,
2013-03-04 23:10:00,48.3,26.3,30.00,SSE,158,2.2,4.7,42,0.00,,,0.00,VWS V14.01,2013-03-05 04:10:00,
2013-03-04 23:15:00,48.5,26.5,30.00,SW,225,2.0,4.7,42,0.00,,,0.00,VWS V14.01,2013-03-05 04:15:00,
2013-03-04 23:20:00,48.8,26.8,30.00,NW,315,1.3,4.7,42,0.00,,,0.00,VWS V14.01,2013-03-05 04:20:00,
2013-03-04 23:25:00,48.1,26.1,30.00,NNW,338,1.3,4.7,42,0.00,,,0.00,VWS V14.01,2013-03-05 04:25:00,
2013-03-04 23:30:00,48.0,26.0,30.03,South,180,2.5,4.7,42,0.00,,,0.00,VWS V14.01,2013-03-05 04:30:00,
2013-03-04 23:35:00,48.1,26.1,30.03,SSE,158,2.0,4.3,42,0.00,,,0.00,VWS V14.01,2013-03-05 04:35:00,
2013-03-04 23:40:00,48.0,26.0,30.00,SSW,202,2.2,4.3,42,0.00,,,0.00,VWS V14.01,2013-03-05 04:40:00,
2013-03-04 23:45:00,48.1,26.1,30.00,WSW,248,0.0,5.8,42,0.00,,,0.00,VWS V14.01,2013-03-05 04:45:00,
2013-03-04 23:50:00,48.0,26.0,30.00,WNW,292,3.8,5.6,42,0.00,,,0.00,VWS V14.01,2013-03-05 04:50:00,
2013-03-04 23:55:00,47.2,25.3,30.03,SSE,158,2.7,5.6,42,0.00,,,0.00,VWS V14.01,2013-03-05 04:55:00,